Time,TemperatureF,DewpointF,PressureIn,WindDirection,WindDirectionDegrees,WindSpeedMPH,WindSpeedGustMPH,Humidity,HourlyPrecipIn,Conditions,Clouds,dailyrainin,SoftwareType,DateUTC
2013-08-05 00:00:00,68.5,64.8,30.05,WNW,288,0.0,0.0,88,0.00,,SCT046,0.00,VWS V14.01,2013-08-05 04:00:00,
2013-08-05 00:13:00,68.0,63.7,30.06,WNW,288,0.0,0.0,86,0.00,,SCT046,0.00,VWS V14.01,2013-08-05 04:13:00,
2013-08-05 00:28:00,67.6,63.6,30.06,WNW,288,0.0,0.0,87,0.00,,SCT046,0.00,VWS V14.01,2013-08-05 04:28:00,
2013-08-05 00:43:00,67.6,63.6,30.06,WNW,288,0.0,1.3,87,0.00,,SCT046,0.00,VWS V14.01,2013-08-05 04:43:00,
2013-08-05 00:58:00,67.6,63.9,30.06,WNW,288,0.0,0.0,88,0.00,,SCT046,0.00,VWS V14.01,2013-08-05 04:58:00,
2013-08-05 01:13:00,67.4,64.1,30.06,WNW,288,0.0,0.0,89,0.00,,CLR,0.00,VWS V14.01,2013-08-05 05:13:00,
2013-08-05 01:28:00,67.2,63.8,30.06,WNW,288,0.0,0.0,89,0.00,,CLR,0.00,VWS V14.01,2013-08-05 05:28:00,
2013-08-05 01:43:00,67.0,63.7,30.05,WNW,288,0.0,0.0,89,0.00,,CLR,0.00,VWS V14.01,2013-08-05 05:43:00,
2013-08-05 01:58:00,67.1,64.1,30.05,WNW,288,0.0,0.0,90,0.00,,CLR,0.00,VWS V14.01,2013-08-05 05:58:00,
2013-08-05 02:13:00,67.2,64.5,30.05,WNW,288,0.0,0.0,91,0.00,,SCT049,0.00,VWS V14.01,2013-08-05 06:13:00,
2013-08-05 02:28:00,67.4,64.4,30.05,WNW,288,0.0,0.0,90,0.00,,SCT049,0.00,VWS V14.01,2013-08-05 06:28:00,
2013-08-05 02:43:00,67.4,64.1,30.04,WNW,288,0.0,0.0,89,0.00,,SCT049,0.00,VWS V14.01,2013-08-05 06:43:00,
2013-08-05 02:58:00,67.6,64.6,30.04,WNW,288,0.0,0.0,90,0.00,,SCT049,0.00,VWS V14.01,2013-08-05 06:58:00,
2013-08-05 03:13:00,67.5,64.2,30.03,WNW,288,0.0,0.0,89,0.00,,BKN060,0.00,VWS V14.01,2013-08-05 07:13:00,
2013-08-05 03:28:00,67.5,64.5,30.03,WNW,288,0.0,0.0,90,0.00,,BKN060,0.00,VWS V14.01,2013-08-05 07:28:00,
2013-08-05 03:43:00,67.4,64.4,30.03,WNW,288,0.0,1.3,90,0.00,,BKN060,0.00,VWS V14.01,2013-08-05 07:43:00,
2013-08-05 03:58:00,67.3,64.3,30.03,WNW,288,0.0,0.0,90,0.00,,BKN060,0.00,VWS V14.01,2013-08-05 07:58:00,
2013-08-05 04:13:00,67.1,64.4,30.03,WNW,288,0.0,0.0,91,0.00,,OVC055,0.00,VWS V14.01,2013-08-05 08:13:00,
2013-08-05 04:28:00,67.4,64.7,30.03,WNW,288,0.0,0.0,91,0.00,,OVC055,0.00,VWS V14.01,2013-08-05 08:28:00,
2013-08-05 04:43:00,67.7,65.0,30.03,WNW,288,0.0,0.0,91,0.00,,OVC055,0.00,VWS V14.01,2013-08-05 08:43:00,
2013-08-05 04:58:00,67.9,64.9,30.04,WNW,288,0.0,0.0,90,0.00,,OVC055,0.00,VWS V14.01,2013-08-05 08:58:00,
2013-08-05 05:13:00,67.9,64.5,30.04,WNW,288,0.0,0.0,89,0.00,,,0.00,VWS V14.01,2013-08-05 09:13:00,
2013-08-05 05:28:00,67.9,64.9,30.04,WNW,288,0.0,0.0,90,0.00,,,0.00,VWS V14.01,2013-08-05 09:28:00,
2013-08-05 05:43:00,67.6,64.6,30.04,WNW,288,0.0,1.3,90,0.00,,,0.00,VWS V14.01,2013-08-05 09:43:00,
2013-08-05 05:58:00,67.4,64.4,30.05,WNW,288,0.0,0.0,90,0.00,,,0.00,VWS V14.01,2013-08-05 09:58:00,
2013-08-05 06:13:00,67.2,64.5,30.05,WNW,288,0.0,0.0,91,0.00,,OVC060,0.00,VWS V14.01,2013-08-05 10:13:00,
2013-08-05 06:28:00,67.0,64.6,30.05,WNW,288,0.0,0.0,92,0.00,,OVC060,0.00,VWS V14.01,2013-08-05 10:28:00,
2013-08-05 06:43:00,66.9,64.5,30.06,WNW,288,0.0,0.0,92,0.00,,OVC060,0.00,VWS V14.01,2013-08-05 10:43:00,
2013-08-05 07:13:00,67.2,64.5,30.07,WNW,288,0.0,0.0,91,0.00,,BKN041,0.00,VWS V14.01,2013-08-05 11:13:00,
2013-08-05 07:28:00,67.4,64.7,30.07,WNW,288,0.0,0.0,91,0.00,,BKN041,0.00,VWS V14.01,2013-08-05 11:28:00,
2013-08-05 07:43:00,67.8,64.8,30.07,WNW,288,0.0,1.3,90,0.00,,BKN041,0.00,VWS V14.01,2013-08-05 11:43:00,
2013-08-05 07:58:00,68.6,65.6,30.08,WNW,288,0.0,0.0,90,0.00,,BKN041,0.00,VWS V14.01,2013-08-05 11:58:00,
2013-08-05 08:13:00,69.4,65.7,30.08,WNW,288,0.0,0.0,88,0.00,,SCT060,0.00,VWS V14.01,2013-08-05 12:13:00,
2013-08-05 08:28:00,70.6,66.6,30.08,WNW,288,0.0,1.3,87,0.00,,SCT060,0.00,VWS V14.01,2013-08-05 12:28:00,
2013-08-05 08:58:00,72.9,67.1,30.09,NE,56,1.3,1.3,82,0.00,,SCT060,0.00,VWS V14.01,2013-08-05 12:58:00,
2013-08-05 09:13:00,73.8,67.2,30.09,NE,49,0.0,1.3,80,0.00,,BKN055,0.00,VWS V14.01,2013-08-05 13:13:00,
2013-08-05 09:28:00,74.3,67.0,30.09,East,94,2.6,3.9,78,0.00,,BKN055,0.00,VWS V14.01,2013-08-05 13:28:00,
2013-08-05 09:43:00,74.7,66.6,30.09,ENE,59,2.6,9.1,76,0.00,,BKN055,0.00,VWS V14.01,2013-08-05 13:43:00,
2013-08-05 09:58:00,74.3,66.6,30.09,ENE,67,3.9,5.2,77,0.00,,BKN055,0.00,VWS V14.01,2013-08-05 13:58:00,
2013-08-05 10:13:00,74.6,66.9,30.09,North,360,0.0,3.9,77,0.00,,OVC070,0.00,VWS V14.01,2013-08-05 14:13:00,
2013-08-05 10:28:00,75.6,67.9,30.09,East,94,1.3,3.9,77,0.00,,OVC070,0.00,VWS V14.01,2013-08-05 14:28:00,
2013-08-05 10:58:00,76.1,68.4,30.10,ESE,104,0.0,2.6,77,0.00,,OVC070,0.00,VWS V14.01,2013-08-05 14:58:00,
2013-08-05 11:13:00,76.9,68.0,30.10,NE,56,1.3,7.8,74,0.00,,OVC055,0.00,VWS V14.01,2013-08-05 15:13:00,
2013-08-05 11:28:00,77.5,69.3,30.10,ENE,73,0.0,3.9,76,0.00,,OVC055,0.00,VWS V14.01,2013-08-05 15:28:00,
2013-08-05 11:43:00,77.8,69.6,30.09,East,83,0.0,3.9,76,0.00,,OVC055,0.00,VWS V14.01,2013-08-05 15:43:00,
2013-08-05 11:58:00,79.4,70.0,30.09,NE,40,1.3,2.6,73,0.00,,OVC055,0.00,VWS V14.01,2013-08-05 15:58:00,
2013-08-05 12:13:00,80.1,71.5,30.09,NE,43,1.3,1.3,75,0.00,,BKN060,0.00,VWS V14.01,2013-08-05 16:13:00,
2013-08-05 12:43:00,81.3,72.2,30.08,ENE,60,2.6,5.2,74,0.00,,BKN060,0.00,VWS V14.01,2013-08-05 16:43:00,
2013-08-05 12:58:00,82.2,72.7,30.07,East,96,1.3,1.3,73,0.00,,BKN060,0.00,VWS V14.01,2013-08-05 16:58:00,
2013-08-05 13:13:00,82.4,72.5,30.06,SSE,149,2.6,3.9,72,0.00,,BKN060,0.00,VWS V14.01,2013-08-05 17:13:00,
2013-08-05 13:28:00,81.9,72.4,30.06,WSW,238,1.3,3.9,73,0.00,,BKN060,0.00,VWS V14.01,2013-08-05 17:28:00,
2013-08-05 13:58:00,83.4,72.6,30.05,East,81,1.3,2.6,70,0.00,,BKN060,0.00,VWS V14.01,2013-08-05 17:58:00,
2013-08-05 14:13:00,83.0,71.4,30.04,WSW,253,3.9,9.1,68,0.00,,BKN065,0.00,VWS V14.01,2013-08-05 18:13:00,
2013-08-05 14:28:00,83.7,72.5,30.04,SE,134,3.9,6.5,69,0.00,,BKN065,0.00,VWS V14.01,2013-08-05 18:28:00,
2013-08-05 14:43:00,84.2,73.4,30.03,SSW,202,3.9,5.2,70,0.00,,BKN065,0.00,VWS V14.01,2013-08-05 18:43:00,
2013-08-05 14:58:00,82.8,72.4,30.04,WSW,237,5.2,10.4,71,0.00,,BKN065,0.00,VWS V14.01,2013-08-05 18:58:00,
2013-08-05 15:13:00,82.4,70.8,30.03,South,176,2.6,6.5,68,0.00,,BKN060,0.00,VWS V14.01,2013-08-05 19:13:00,
2013-08-05 15:28:00,84.7,71.6,30.03,South,169,6.5,6.5,65,0.00,,BKN060,0.00,VWS V14.01,2013-08-05 19:28:00,
2013-08-05 15:43:00,83.2,71.6,30.03,SSE,159,0.0,6.5,68,0.00,,BKN060,0.00,VWS V14.01,2013-08-05 19:43:00,
2013-08-05 16:13:00,83.7,71.6,30.02,ESE,120,1.3,6.5,67,0.00,,OVC085,0.00,VWS V14.01,2013-08-05 20:13:00,
2013-08-05 16:28:00,84.2,72.5,30.01,South,190,3.9,3.9,68,0.00,,OVC085,0.00,VWS V14.01,2013-08-05 20:28:00,
2013-08-05 16:43:00,84.2,72.5,30.01,South,181,2.6,7.8,68,0.00,,OVC085,0.00,VWS V14.01,2013-08-05 20:43:00,
2013-08-05 16:58:00,83.7,72.5,30.01,SW,229,7.8,9.1,69,0.00,,OVC085,0.00,VWS V14.01,2013-08-05 20:58:00,
2013-08-05 17:13:00,84.6,72.0,30.00,SSW,202,1.3,6.5,66,0.00,,SCT038,0.00,VWS V14.01,2013-08-05 21:13:00,
2013-08-05 17:28:00,84.8,73.1,30.00,SW,227,2.6,6.5,68,0.00,,SCT038,0.00,VWS V14.01,2013-08-05 21:28:00,
2013-08-05 17:43:00,83.8,72.1,29.99,SSE,148,7.8,9.1,68,0.00,,SCT038,0.00,VWS V14.01,2013-08-05 21:43:00,
2013-08-05 18:13:00,83.6,72.8,30.00,SSW,204,1.3,5.2,70,0.00,,CLR,0.00,VWS V14.01,2013-08-05 22:13:00,
2013-08-05 18:28:00,82.8,72.4,30.00,SSE,163,1.3,2.6,71,0.00,,CLR,0.00,VWS V14.01,2013-08-05 22:28:00,
2013-08-05 18:43:00,82.2,72.3,30.00,SSE,166,1.3,5.2,72,0.00,,CLR,0.00,VWS V14.01,2013-08-05 22:43:00,
2013-08-05 18:58:00,81.8,72.3,30.00,SSW,212,1.3,3.9,73,0.00,,CLR,0.00,VWS V14.01,2013-08-05 22:58:00,
2013-08-05 19:28:00,81.0,72.7,30.00,South,178,1.3,2.6,76,0.00,,CLR,0.00,VWS V14.01,2013-08-05 23:28:00,
2013-08-05 19:43:00,80.4,72.2,30.00,SSW,205,2.6,3.9,76,0.00,,CLR,0.00,VWS V14.01,2013-08-05 23:43:00,
2013-08-05 19:58:00,80.4,72.2,30.00,SSW,204,1.3,2.6,76,0.00,,CLR,0.00,VWS V14.01,2013-08-05 23:58:00,
2013-08-05 20:13:00,79.0,72.7,30.01,SSW,204,0.0,0.0,81,0.00,,CLR,0.00,VWS V14.01,2013-08-06 00:13:00,
2013-08-05 20:58:00,76.1,71.6,30.01,SSW,204,1.3,1.3,86,0.00,,CLR,0.00,VWS V14.01,2013-08-06 00:58:00,
2013-08-05 21:13:00,75.6,71.1,30.02,SSW,204,0.0,0.0,86,0.00,,BKN120,0.00,VWS V14.01,2013-08-06 01:13:00,
2013-08-05 21:28:00,75.2,71.1,30.01,SSW,204,0.0,0.0,87,0.00,,BKN120,0.00,VWS V14.01,2013-08-06 01:28:00,
2013-08-05 21:43:00,74.6,70.5,30.01,SSW,204,0.0,1.3,87,0.00,,BKN120,0.00,VWS V14.01,2013-08-06 01:43:00,
2013-08-05 21:58:00,74.3,70.5,30.01,SSW,204,0.0,0.0,88,0.00,,BKN120,0.00,VWS V14.01,2013-08-06 01:58:00,
2013-08-05 22:13:00,74.4,70.9,30.01,SSW,204,0.0,0.0,89,0.00,,SCT095,0.00,VWS V14.01,2013-08-06 02:13:00,
2013-08-05 22:43:00,73.7,70.3,30.02,SSW,204,0.0,0.0,89,0.00,,SCT095,0.00,VWS V14.01,2013-08-06 02:43:00,
2013-08-05 22:58:00,73.4,70.3,30.02,SSW,204,0.0,0.0,90,0.00,,SCT095,0.00,VWS V14.01,2013-08-06 02:58:00,
2013-08-05 23:28:00,76.2,72.1,30.02,SSW,207,2.6,5.2,87,0.00,,BKN044,0.00,VWS V14.01,2013-08-06 03:28:00,
2013-08-05 23:43:00,76.9,72.1,30.02,South,190,3.9,5.2,85,0.00,,BKN044,0.00,VWS V14.01,2013-08-06 03:43:00,